TimeEDT,TemperatureF,Dew PointF,Humidity,Sea Level PressureIn,VisibilityMPH,Wind Direction,Wind SpeedMPH,Gust SpeedMPH,PrecipitationIn,Events,Conditions,WindDirDegrees,DateUTC
12:15 AM,60.8,57.2,88,29.94,0.8,NW,18.4,38.0,0.25,Rain-Thunderstorm,Heavy Thunderstorms and Rain,320,2013-03-19 04:15:00
12:35 AM,59.0,57.2,94,29.94,3.0,NW,12.7,20.7,0.33,Rain-Thunderstorm,Heavy Rain,320,2013-03-19 04:35:00
1:15 AM,57.2,57.2,100,29.93,7.0,North,5.8,-,0.00,Rain,Light Rain,350,2013-03-19 05:15:00
1:35 AM,57.2,57.2,100,29.92,9.0,North,3.5,-,0.01,Rain,Light Rain,350,2013-03-19 05:35:00
1:55 AM,57.2,55.4,94,29.91,10.0,Calm,Calm,-,0.01,,Mostly Cloudy,0,2013-03-19 05:55:00
2:15 AM,57.2,55.4,94,29.89,10.0,Calm,Calm,-,0.00,,Overcast,0,2013-03-19 06:15:00
2:35 AM,57.2,55.4,94,29.86,10.0,SSE,6.9,-,0.00,,Overcast,150,2013-03-19 06:35:00
2:55 AM,57.2,55.4,94,29.87,10.0,SSW,5.8,-,0.00,,Mostly Cloudy,200,2013-03-19 06:55:00
3:15 AM,57.2,55.4,94,29.87,10.0,SSW,9.2,-,0.00,,Mostly Cloudy,200,2013-03-19 07:15:00
3:35 AM,57.2,55.4,94,29.87,10.0,SSW,8.1,-,0.00,,Scattered Clouds,210,2013-03-19 07:35:00
3:55 AM,57.2,55.4,94,29.87,10.0,SSW,8.1,-,0.00,,Clear,210,2013-03-19 07:55:00
4:15 AM,57.2,55.4,94,29.87,10.0,WSW,4.6,-,0.00,,Scattered Clouds,240,2013-03-19 08:15:00
4:35 AM,57.2,55.4,94,29.86,10.0,SSW,6.9,-,0.00,,Partly Cloudy,210,2013-03-19 08:35:00
4:55 AM,57.2,55.4,94,29.85,10.0,WSW,6.9,-,0.00,,Clear,240,2013-03-19 08:55:00
5:15 AM,57.2,55.4,94,29.85,10.0,Calm,Calm,-,0.00,,Clear,0,2013-03-19 09:15:00
5:35 AM,57.2,55.4,94,29.84,10.0,Calm,Calm,-,0.00,,Clear,0,2013-03-19 09:35:00
5:55 AM,57.2,55.4,94,29.84,9.0,Calm,Calm,-,0.00,,Clear,0,2013-03-19 09:55:00
6:15 AM,55.4,53.6,94,29.85,8.0,Calm,Calm,-,0.00,,Clear,0,2013-03-19 10:15:00
6:35 AM,55.4,55.4,100,29.86,10.0,Calm,Calm,-,0.00,,Clear,0,2013-03-19 10:35:00
6:55 AM,57.2,55.4,94,29.89,10.0,WSW,6.9,-,0.00,,Scattered Clouds,250,2013-03-19 10:55:00
7:15 AM,57.2,55.4,94,29.90,10.0,West,6.9,-,0.00,,Partly Cloudy,260,2013-03-19 11:15:00
7:35 AM,57.2,55.4,94,29.90,10.0,WNW,5.8,-,0.00,,Clear,290,2013-03-19 11:35:00
7:55 AM,57.2,55.4,94,29.91,10.0,West,6.9,-,0.00,,Clear,270,2013-03-19 11:55:00
8:15 AM,57.2,55.4,94,29.92,10.0,West,6.9,16.1,0.00,,Clear,260,2013-03-19 12:15:00
8:35 AM,59.0,55.4,88,29.91,10.0,West,6.9,-,0.00,,Clear,260,2013-03-19 12:35:00
8:55 AM,59.0,55.4,88,29.89,10.0,West,4.6,-,0.00,,Clear,270,2013-03-19 12:55:00
9:15 AM,59.0,57.2,94,29.92,10.0,WNW,8.1,-,0.00,,Clear,300,2013-03-19 13:15:00
9:35 AM,60.8,57.2,88,29.93,10.0,WNW,13.8,-,0.00,,Clear,290,2013-03-19 13:35:00
10:15 AM,64.4,57.2,77,29.92,10.0,WNW,12.7,-,0.00,,Partly Cloudy,300,2013-03-19 14:15:00
10:35 AM,64.4,57.2,77,29.93,10.0,WNW,10.4,-,0.00,,Scattered Clouds,300,2013-03-19 14:35:00
10:55 AM,62.6,55.4,77,29.93,10.0,NW,12.7,18.4,0.00,,Mostly Cloudy,310,2013-03-19 14:55:00
11:15 AM,64.4,55.4,73,29.93,10.0,NW,13.8,-,0.00,,Partly Cloudy,310,2013-03-19 15:15:00
11:35 AM,66.2,55.4,68,29.94,10.0,NW,10.4,-,0.00,,Partly Cloudy,310,2013-03-19 15:35:00
11:55 AM,66.2,55.4,68,29.95,10.0,NW,15.0,19.6,0.00,,Clear,310,2013-03-19 15:55:00
12:15 PM,68.0,55.4,64,29.95,10.0,NW,15.0,21.9,0.00,,Partly Cloudy,320,2013-03-19 16:15:00
12:35 PM,69.8,55.4,60,29.96,10.0,NW,6.9,18.4,0.00,,Partly Cloudy,310,2013-03-19 16:35:00
12:55 PM,69.8,53.6,56,29.95,10.0,NW,13.8,19.6,0.00,,Partly Cloudy,310,2013-03-19 16:55:00
1:15 PM,71.6,53.6,53,29.95,10.0,WNW,15.0,18.4,0.00,,Clear,300,2013-03-19 17:15:00
1:35 PM,73.4,53.6,50,29.94,10.0,NW,9.2,19.6,0.00,,Clear,310,2013-03-19 17:35:00
1:55 PM,73.4,53.6,50,29.93,10.0,NNW,12.7,18.4,0.00,,Clear,330,2013-03-19 17:55:00
2:15 PM,73.4,51.8,47,29.93,10.0,WNW,13.8,20.7,0.00,,Clear,300,2013-03-19 18:15:00
2:35 PM,75.2,51.8,44,29.92,10.0,NW,13.8,19.6,0.00,,Clear,310,2013-03-19 18:35:00
2:55 PM,75.2,51.8,44,29.92,10.0,WNW,11.5,-,0.00,,Clear,300,2013-03-19 18:55:00
3:15 PM,75.2,50.0,41,29.91,10.0,WNW,10.4,21.9,0.00,,Clear,300,2013-03-19 19:15:00
3:35 PM,75.2,48.2,38,29.91,10.0,NW,12.7,17.3,0.00,,Clear,310,2013-03-19 19:35:00
3:55 PM,75.2,48.2,38,29.90,10.0,WNW,9.2,-,0.00,,Clear,290,2013-03-19 19:55:00
4:15 PM,78.8,44.6,30,29.90,10.0,West,11.5,17.3,0.00,,Clear,280,2013-03-19 20:15:00
4:35 PM,78.8,44.6,30,29.91,10.0,WNW,8.1,-,0.00,,Clear,300,2013-03-19 20:35:00
4:55 PM,78.8,42.8,28,29.90,10.0,NNW,10.4,17.3,0.00,,Clear,330,2013-03-19 20:55:00
5:15 PM,78.8,41.0,26,29.91,10.0,West,10.4,16.1,0.00,,Clear,280,2013-03-19 21:15:00
5:35 PM,78.8,37.4,23,29.91,10.0,West,12.7,16.1,0.00,,Clear,280,2013-03-19 21:35:00
5:55 PM,78.8,37.4,23,29.91,10.0,West,12.7,16.1,0.00,,Clear,260,2013-03-19 21:55:00
6:15 PM,77.0,37.4,24,29.91,10.0,WNW,5.8,-,0.00,,Clear,300,2013-03-19 22:15:00
6:35 PM,75.2,33.8,22,29.92,10.0,West,10.4,-,0.00,,Clear,270,2013-03-19 22:35:00
6:55 PM,75.2,35.6,24,29.92,10.0,WNW,10.4,-,0.00,,Clear,290,2013-03-19 22:55:00
7:15 PM,73.4,32.0,22,29.93,10.0,Calm,Calm,-,0.00,,Clear,0,2013-03-19 23:15:00
7:35 PM,71.6,30.2,22,29.94,10.0,Calm,Calm,-,0.00,,Clear,0,2013-03-19 23:35:00
7:55 PM,68.0,32.0,26,29.95,10.0,Calm,Calm,-,0.00,,Clear,0,2013-03-19 23:55:00
8:15 PM,66.2,32.0,28,29.95,10.0,Calm,Calm,-,0.00,,Clear,0,2013-03-20 00:15:00
8:35 PM,62.6,33.8,34,29.96,10.0,WNW,4.6,-,0.00,,Clear,300,2013-03-20 00:35:00
8:55 PM,62.6,32.0,32,29.96,10.0,Calm,Calm,-,0.00,,Clear,0,2013-03-20 00:55:00
9:15 PM,62.6,32.0,32,29.97,10.0,WNW,4.6,-,0.00,,Clear,300,2013-03-20 01:15:00
9:35 PM,62.6,32.0,32,29.98,10.0,NW,6.9,-,0.00,,Clear,310,2013-03-20 01:35:00
9:55 PM,64.4,28.4,26,29.99,10.0,NW,6.9,-,0.00,,Clear,310,2013-03-20 01:55:00
10:15 PM,62.6,28.4,27,29.99,10.0,NW,6.9,-,0.00,,Clear,320,2013-03-20 02:15:00
10:35 PM,64.4,26.6,24,29.99,10.0,NW,5.8,-,0.00,,Clear,320,2013-03-20 02:35:00
10:55 PM,62.6,28.4,27,29.99,10.0,Calm,Calm,-,0.00,,Clear,0,2013-03-20 02:55:00
11:15 PM,59.0,30.2,34,30.00,10.0,NW,6.9,-,0.00,,Clear,320,2013-03-20 03:15:00
11:35 PM,62.6,28.4,27,30.00,10.0,NW,9.2,-,0.00,,Clear,320,2013-03-20 03:35:00
11:55 PM,62.6,26.6,26,30.00,10.0,NW,8.1,-,0.00,,Clear,320,2013-03-20 03:55:00